Time,TemperatureF,DewpointF,PressureIn,WindDirection,WindDirectionDegrees,WindSpeedMPH,WindSpeedGustMPH,Humidity,HourlyPrecipIn,Conditions,Clouds,dailyrainin,SolarRadiationWatts/m^2,SoftwareType,DateUTC
2013-02-05 00:01:00,41.0,40.0,-100.00,West,279,1.0,2.0,97,0.00,,,0.00,0.000000,,2013-02-05 08:01:00,
2013-02-05 00:32:00,40.0,39.0,-100.00,South,185,1.0,2.0,97,-99.99,,,0.00,0.000000,,2013-02-05 08:32:00,
2013-02-05 00:42:00,40.0,39.0,-100.00,South,185,1.0,2.0,97,-99.99,,,0.00,0.000000,,2013-02-05 08:42:00,
2013-02-05 00:52:00,40.0,39.0,-100.00,South,185,1.0,2.0,97,-99.99,,,0.00,0.000000,,2013-02-05 08:52:00,
2013-02-05 01:02:00,40.0,39.0,-100.00,South,185,1.0,2.0,97,-99.99,,,0.00,0.000000,,2013-02-05 09:02:00,
2013-02-05 01:32:00,38.0,37.0,-100.00,SSE,148,1.0,3.0,97,-99.99,,,0.00,0.000000,,2013-02-05 09:32:00,
2013-02-05 01:42:00,38.0,37.0,-100.00,SSE,148,1.0,3.0,97,-99.99,,,0.00,0.000000,,2013-02-05 09:42:00,
2013-02-05 01:52:00,38.0,37.0,-100.00,SSE,148,1.0,3.0,97,-99.99,,,0.00,0.000000,,2013-02-05 09:52:00,
2013-02-05 02:01:00,38.0,37.0,-100.00,SSE,148,1.0,3.0,97,-99.99,,,0.00,0.000000,,2013-02-05 10:01:00,
2013-02-05 02:32:00,38.0,37.0,-100.00,SSE,152,0.0,2.0,98,-99.99,,,0.00,0.000000,,2013-02-05 10:32:00,
2013-02-05 02:42:00,38.0,37.0,-100.00,SSE,152,0.0,2.0,98,-99.99,,,0.00,0.000000,,2013-02-05 10:42:00,
2013-02-05 02:52:00,38.0,37.0,-100.00,SSE,152,0.0,2.0,98,-99.99,,,0.00,0.000000,,2013-02-05 10:52:00,
2013-02-05 03:01:00,38.0,37.0,-100.00,SSE,152,0.0,2.0,98,-99.99,,,0.00,0.000000,,2013-02-05 11:01:00,
2013-02-05 03:32:00,37.0,36.0,-100.00,East,89,1.0,2.0,98,-99.99,,,0.00,0.000000,,2013-02-05 11:32:00,
2013-02-05 03:42:00,37.0,36.0,-100.00,East,89,1.0,2.0,98,-99.99,,,0.00,0.000000,,2013-02-05 11:42:00,
2013-02-05 03:52:00,37.0,36.0,-100.00,East,89,1.0,2.0,98,-99.99,,,0.00,0.000000,,2013-02-05 11:52:00,
2013-02-05 04:01:00,37.0,36.0,-100.00,East,89,1.0,2.0,98,-99.99,,,0.00,0.000000,,2013-02-05 12:01:00,
2013-02-05 04:32:00,36.0,35.0,-100.00,WNW,288,1.0,3.0,98,-99.99,,,0.00,0.000000,,2013-02-05 12:32:00,
2013-02-05 04:42:00,36.0,35.0,-100.00,WNW,288,1.0,3.0,98,-99.99,,,0.00,0.000000,,2013-02-05 12:42:00,
2013-02-05 04:52:00,36.0,35.0,-100.00,WNW,288,1.0,3.0,98,-99.99,,,0.00,0.000000,,2013-02-05 12:52:00,
2013-02-05 05:01:00,36.0,35.0,-100.00,WNW,288,1.0,3.0,98,-99.99,,,0.00,0.000000,,2013-02-05 13:01:00,
2013-02-05 05:32:00,36.0,35.0,-100.00,South,182,1.0,3.0,98,-99.99,,,0.00,0.000000,,2013-02-05 13:32:00,
2013-02-05 05:42:00,36.0,35.0,-100.00,South,182,1.0,3.0,98,-99.99,,,0.00,0.000000,,2013-02-05 13:42:00,
2013-02-05 05:52:00,36.0,35.0,-100.00,South,182,1.0,3.0,98,-99.99,,,0.00,0.000000,,2013-02-05 13:52:00,
2013-02-05 06:01:00,36.0,35.0,-100.00,South,182,1.0,3.0,98,-99.99,,,0.00,0.000000,,2013-02-05 14:01:00,
2013-02-05 06:32:00,35.0,34.0,-100.00,WSW,238,1.0,3.0,98,-99.99,,,0.00,0.000000,,2013-02-05 14:32:00,
2013-02-05 06:42:00,35.0,34.0,-100.00,WSW,238,1.0,3.0,98,-99.99,,,0.00,0.000000,,2013-02-05 14:42:00,
2013-02-05 06:52:00,35.0,34.0,-100.00,WSW,238,1.0,3.0,98,-99.99,,,0.00,0.000000,,2013-02-05 14:52:00,
2013-02-05 07:01:00,35.0,34.0,-100.00,WSW,238,1.0,3.0,98,-99.99,,,0.00,0.000000,,2013-02-05 15:01:00,
2013-02-05 07:32:00,35.0,34.0,-100.00,SW,234,0.0,4.0,98,-99.99,,,0.00,0.000000,,2013-02-05 15:32:00,
2013-02-05 07:42:00,35.0,34.0,-100.00,SW,234,0.0,4.0,98,-99.99,,,0.00,0.000000,,2013-02-05 15:42:00,
2013-02-05 07:52:00,35.0,34.0,-100.00,SW,234,0.0,4.0,98,-99.99,,,0.00,0.000000,,2013-02-05 15:52:00,
2013-02-05 08:01:00,35.0,34.0,-100.00,SW,234,0.0,4.0,98,-99.99,,,0.00,0.000000,,2013-02-05 16:01:00,
2013-02-05 08:33:00,36.0,35.0,-100.00,WNW,288,1.0,3.0,98,-99.99,,,-99.99,11.000000,,2013-02-05 16:33:00,
2013-02-05 08:42:00,36.0,35.0,-100.00,WNW,288,1.0,3.0,98,-99.99,,,-99.99,11.000000,,2013-02-05 16:42:00,
2013-02-05 08:52:00,36.0,35.0,-100.00,WNW,288,1.0,3.0,98,-99.99,,,-99.99,11.000000,,2013-02-05 16:52:00,
2013-02-05 09:01:00,36.0,35.0,-100.00,WNW,288,1.0,3.0,98,-99.99,,,-99.99,11.000000,,2013-02-05 17:01:00,
2013-02-05 09:32:00,46.0,45.0,-100.00,ENE,73,1.0,3.0,95,-99.99,,,-99.99,253.000000,,2013-02-05 17:32:00,
2013-02-05 09:42:00,46.0,45.0,-100.00,ENE,73,1.0,3.0,95,-99.99,,,-99.99,253.000000,,2013-02-05 17:42:00,
2013-02-05 09:52:00,46.0,45.0,-100.00,ENE,73,1.0,3.0,95,-99.99,,,-99.99,253.000000,,2013-02-05 17:52:00,
2013-02-05 10:01:00,46.0,45.0,-100.00,ENE,73,1.0,3.0,95,-99.99,,,-99.99,253.000000,,2013-02-05 18:01:00,
2013-02-05 10:32:00,56.0,47.0,-100.00,ESE,115,2.0,4.0,71,0.00,,,0.00,448.000000,,2013-02-05 18:32:00,
2013-02-05 10:42:00,56.0,47.0,-100.00,ESE,115,2.0,4.0,71,0.00,,,0.00,448.000000,,2013-02-05 18:42:00,
2013-02-05 10:52:00,56.0,47.0,-100.00,ESE,115,2.0,4.0,71,0.00,,,0.00,448.000000,,2013-02-05 18:52:00,
2013-02-05 11:02:00,56.0,47.0,-100.00,ESE,115,2.0,4.0,71,0.00,,,0.00,448.000000,,2013-02-05 19:02:00,
2013-02-05 11:32:00,58.0,47.0,-100.00,SSE,162,4.0,7.0,67,0.00,,,0.00,578.000000,,2013-02-05 19:32:00,
2013-02-05 11:42:00,58.0,47.0,-100.00,SSE,162,4.0,7.0,67,0.00,,,0.00,578.000000,,2013-02-05 19:42:00,
2013-02-05 11:52:00,58.0,47.0,-100.00,SSE,162,4.0,7.0,67,0.00,,,0.00,578.000000,,2013-02-05 19:52:00,
2013-02-05 12:01:00,58.0,47.0,-100.00,SSE,162,4.0,7.0,67,0.00,,,0.00,578.000000,,2013-02-05 20:01:00,
2013-02-05 12:32:00,58.0,44.0,-100.00,NNW,331,4.0,9.0,59,0.00,,,-99.99,574.000000,,2013-02-05 20:32:00,
2013-02-05 12:42:00,58.0,44.0,-100.00,NNW,331,4.0,9.0,59,0.00,,,-99.99,574.000000,,2013-02-05 20:42:00,
2013-02-05 12:52:00,58.0,44.0,-100.00,NNW,331,4.0,9.0,59,0.00,,,-99.99,574.000000,,2013-02-05 20:52:00,
2013-02-05 13:01:00,58.0,44.0,-100.00,NNW,331,4.0,9.0,59,0.00,,,-99.99,574.000000,,2013-02-05 21:01:00,
2013-02-05 13:32:00,58.0,44.0,-100.00,NNW,331,4.0,7.0,59,0.00,,,0.00,445.000000,,2013-02-05 21:32:00,
2013-02-05 13:42:00,58.0,44.0,-100.00,NNW,331,4.0,7.0,59,0.00,,,0.00,445.000000,,2013-02-05 21:42:00,
2013-02-05 13:52:00,58.0,44.0,-100.00,NNW,331,4.0,7.0,59,0.00,,,0.00,445.000000,,2013-02-05 21:52:00,
2013-02-05 14:01:00,58.0,44.0,-100.00,NNW,331,4.0,7.0,59,0.00,,,0.00,445.000000,,2013-02-05 22:01:00,
2013-02-05 14:32:00,58.0,45.0,-100.00,North,350,2.0,6.0,61,0.00,,,0.00,342.000000,,2013-02-05 22:32:00,
2013-02-05 14:42:00,58.0,45.0,-100.00,North,350,2.0,6.0,61,0.00,,,0.00,342.000000,,2013-02-05 22:42:00,
2013-02-05 14:52:00,58.0,45.0,-100.00,North,350,2.0,6.0,61,0.00,,,0.00,342.000000,,2013-02-05 22:52:00,
2013-02-05 15:01:00,58.0,45.0,-100.00,North,350,2.0,6.0,61,0.00,,,0.00,342.000000,,2013-02-05 23:01:00,
2013-02-05 15:32:00,56.0,44.0,-100.00,North,352,3.0,7.0,64,0.00,,,0.00,245.000000,,2013-02-05 23:32:00,
2013-02-05 15:42:00,56.0,44.0,-100.00,North,352,3.0,7.0,64,0.00,,,0.00,245.000000,,2013-02-05 23:42:00,
2013-02-05 15:52:00,56.0,44.0,-100.00,North,352,3.0,7.0,64,0.00,,,0.00,245.000000,,2013-02-05 23:52:00,
2013-02-05 16:01:00,56.0,44.0,-100.00,North,352,3.0,7.0,64,0.00,,,0.00,245.000000,,2013-02-06 00:01:00,
2013-02-05 16:32:00,54.0,44.0,-100.00,SSW,205,1.0,5.0,68,0.00,,,0.00,88.000000,,2013-02-06 00:32:00,
2013-02-05 16:42:00,54.0,44.0,-100.00,SSW,205,1.0,5.0,68,0.00,,,0.00,88.000000,,2013-02-06 00:42:00,
2013-02-05 16:52:00,54.0,44.0,-100.00,SSW,205,1.0,5.0,68,0.00,,,0.00,88.000000,,2013-02-06 00:52:00,
2013-02-05 17:01:00,54.0,44.0,-100.00,SSW,205,1.0,5.0,68,0.00,,,0.00,88.000000,,2013-02-06 01:01:00,
2013-02-05 17:32:00,50.0,44.0,-100.00,SSE,165,2.0,4.0,79,0.00,,,-99.99,25.000000,,2013-02-06 01:32:00,
2013-02-05 17:42:00,50.0,44.0,-100.00,SSE,165,2.0,4.0,79,0.00,,,-99.99,25.000000,,2013-02-06 01:42:00,
2013-02-05 17:52:00,50.0,44.0,-100.00,SSE,165,2.0,4.0,79,0.00,,,-99.99,25.000000,,2013-02-06 01:52:00,
2013-02-05 18:01:00,50.0,44.0,-100.00,SSE,165,2.0,4.0,79,0.00,,,-99.99,25.000000,,2013-02-06 02:01:00,
2013-02-05 18:32:00,47.0,43.0,-100.00,WSW,251,2.0,5.0,85,0.00,,,0.00,7.000000,,2013-02-06 02:32:00,
2013-02-05 18:42:00,47.0,43.0,-100.00,WSW,251,2.0,5.0,85,0.00,,,0.00,7.000000,,2013-02-06 02:42:00,
2013-02-05 18:52:00,47.0,43.0,-100.00,WSW,251,2.0,5.0,85,0.00,,,0.00,7.000000,,2013-02-06 02:52:00,
2013-02-05 19:02:00,47.0,43.0,-100.00,WSW,251,2.0,5.0,85,0.00,,,0.00,7.000000,,2013-02-06 03:02:00,
2013-02-05 19:32:00,47.0,43.0,-100.00,NW,326,2.0,4.0,85,0.00,,,0.00,0.000000,,2013-02-06 03:32:00,
2013-02-05 19:42:00,47.0,43.0,-100.00,NW,326,2.0,4.0,85,0.00,,,0.00,0.000000,,2013-02-06 03:42:00,
2013-02-05 19:52:00,47.0,43.0,-100.00,NW,326,2.0,4.0,85,0.00,,,0.00,0.000000,,2013-02-06 03:52:00,
2013-02-05 20:01:00,47.0,43.0,-100.00,NW,326,2.0,4.0,85,0.00,,,0.00,0.000000,,2013-02-06 04:01:00,
2013-02-05 20:32:00,45.0,41.0,-100.00,SW,227,3.0,5.0,87,0.00,,,0.00,0.000000,,2013-02-06 04:32:00,
2013-02-05 20:42:00,45.0,41.0,-100.00,SW,227,3.0,5.0,87,0.00,,,0.00,0.000000,,2013-02-06 04:42:00,
2013-02-05 20:52:00,45.0,41.0,-100.00,SW,227,3.0,5.0,87,0.00,,,0.00,0.000000,,2013-02-06 04:52:00,
2013-02-05 21:01:00,45.0,41.0,-100.00,SW,227,3.0,5.0,87,0.00,,,0.00,0.000000,,2013-02-06 05:01:00,
2013-02-05 21:32:00,43.0,41.0,-100.00,SSW,194,3.0,5.0,93,0.00,,,0.00,0.000000,,2013-02-06 05:32:00,
2013-02-05 21:42:00,43.0,41.0,-100.00,SSW,194,3.0,5.0,93,0.00,,,0.00,0.000000,,2013-02-06 05:42:00,
2013-02-05 21:53:00,43.0,41.0,-100.00,SSW,194,3.0,5.0,93,0.00,,,0.00,0.000000,,2013-02-06 05:53:00,
2013-02-05 22:01:00,43.0,41.0,-100.00,SSW,194,3.0,5.0,93,0.00,,,0.00,0.000000,,2013-02-06 06:01:00,
2013-02-05 22:32:00,42.0,40.0,-100.00,ESE,110,1.0,5.0,93,-99.99,,,0.00,0.000000,,2013-02-06 06:32:00,
2013-02-05 22:42:00,42.0,40.0,-100.00,ESE,110,1.0,5.0,93,-99.99,,,0.00,0.000000,,2013-02-06 06:42:00,
2013-02-05 22:52:00,42.0,40.0,-100.00,ESE,110,1.0,5.0,93,-99.99,,,0.00,0.000000,,2013-02-06 06:52:00,
2013-02-05 23:01:00,42.0,40.0,-100.00,ESE,110,1.0,5.0,93,-99.99,,,0.00,0.000000,,2013-02-06 07:01:00,
2013-02-05 23:32:00,41.0,40.0,-100.00,SE,137,1.0,3.0,95,0.00,,,0.00,0.000000,,2013-02-06 07:32:00,
2013-02-05 23:42:00,41.0,40.0,-100.00,SE,137,1.0,3.0,95,0.00,,,0.00,0.000000,,2013-02-06 07:42:00,
2013-02-05 23:52:00,41.0,40.0,-100.00,SE,137,1.0,3.0,95,0.00,,,0.00,0.000000,,2013-02-06 07:52:00,